Skip Page Navigation
NASA JPL Caltech
NASA Logo - Jet Propulsion Laboratory + View the NASA Portal
+ Near-Earth Object (NEO) Program
Search JPL
JPL Home Earth Solar System Stars & Galaxies Technology
JPL Solar System Dynamics
BODIES ORBITS EPHEMERIDES TOOLS PHYSICAL DATA DISCOVERY FAQ SITE MAP
JPL Small-Body Database Browser
Search: [ help ]  
17249 Eliotyoung (2000 GM110)
Classification: Main-belt Asteroid          SPK-ID: 2017249
Ephemeris | Orbit Diagram | Orbital Elements | Physical Parameters | Discovery Circumstances | Close-Approach Data ]

[ show orbit diagram ]
Orbital Elements at Epoch 2456800.5 (2014-May-23.0) TDB
Reference: JPL 11 (heliocentric ecliptic J2000)
 Element Value Uncertainty (1-sigma)   Units 
e .13140031219738 6.349e-08  
a 3.069135907771737 3.5516e-08 AU
q 2.665850491314341 1.9077e-07 AU
i 2.910487917884128 6.6586e-06 deg
node 327.8140263827988 0.00013878 deg
peri 22.18424506615357 0.00014121 deg
M 81.51474840141607 2.5292e-05 deg
tp 2456355.811089789838
(2013-Mar-04.31108979)
0.00013809 JED
period 1963.914638947437
5.38
3.4089e-05
9.333e-08
d
yr
n .1833073560635723 3.1818e-09 deg/d
Q 3.472421324229133 4.0183e-08 AU
  Orbit Determination Parameters
   # obs. used (total)      748  
   data-arc span      9532 days (26.10 yr)  
   first obs. used      1988-02-16  
   last obs. used      2014-03-23  
   planetary ephem.      DE431  
   SB-pert. ephem.      SB431-BIG16  
   condition code      0  
   fit RMS      .60568  
   data source      ORB  
   producer      Otto Matic  
   solution date      2014-Jun-09 21:47:32  

Additional Information
 Earth MOID = 1.65862 AU 
 T_jup = 3.216 
[ show covariance matrix ]

Ephemeris | Orbit Diagram | Orbital Elements | Physical Parameters | Discovery Circumstances | Close-Approach Data ]

Physical Parameter Table
Parameter Symbol Value Units Sigma Reference Notes
absolute magnitude H 13.9 mag n/a MPO279697  

17249 Eliotyoung           Discovered 2000 Apr. 2 by the Lowell Observatory Near-Earth Object Search at the Anderson Mesa Station.
Eliot F. Young (b. 1962), of the Southwest Research Institute, Boulder, Colorado, studies volatile transport on outer-solar-system bodies. He has used the mutual events between Pluto and Pluto I (Charon) to determine their radii and to derive albedo and color maps of Pluto.
NOTE: some special characters may not display properly (any characters within {} are an attempt to place the proper accent above a character)
Reference: 20050721/MPCPages.arcLast Updated: 2005-07-21

[ show close-approach data ]
Alternate Designations
 2000 GM110 = 1988 DP3 = 1991 RJ35 = 1998 YD11 
Ephemeris | Orbit Diagram | Orbital Elements | Physical Parameters | Discovery Circumstances | Close-Approach Data ]
ABOUT SSD CREDITS/AWARDS PRIVACY/COPYRIGHT GLOSSARY LINKS
FirstGov 2014-Jul-23 05:45 UT
(server date/time)  
NASA Home Page
Site Manager:   Donald K. Yeomans
Webmaster  Alan B. Chamberlin